This demonstration page uses our WeatherBlox Daily Observations layout. Learn more.

39.92423, -83.80882

Hourly Observations for July 31, 2018

Temp ( °F °C ) Dew Point ( °F °C ) Humidity (%) Winds ( mph kmh ) Pressure ( in mb ) Visibility ( mi km ) Precip ( " mm )
12:56 am 00:56 Cloudy 68 20 65 18.3 90 90 NE 8 13 30.03 1017 10 16.0934 0 0
1:56 am 01:56 Cloudy 68 20 65 18.3 90 90 ENE 7 11 30.01 1016 10 16.0934 0 0
2:56 am 02:56 Cloudy with Rain 67 19.4 66 18.9 97 97 ESE 7 11 30.01 1016 6 9.65604 0.02 0.508
3:56 am 03:56 Cloudy 66 18.9 66 18.9 100 100 ENE 7 11 30 1016 9 14.48406 0.02 0.508
4:56 am 04:56 Cloudy with Rain 66 18.9 66 18.9 100 100 ENE 6 9 29.99 1016 5 8.0467 0.06 1.524
5:56 am 05:56 Mostly Cloudy with Light Rain 66 18.9 66 18.9 100 100 ENE 5 7 29.99 1016 5 8.0467 0.06 1.524
6:45 am 06:45 Cloudy with Nearby Thunderstorms 66 19 66 19 100 100 E 5 7 29.97 1015 2.5 4.02335 0.11 2.794
6:56 am 06:56 Cloudy with Nearby Thunderstorms 66 18.9 66 18.9 100 100 E 5 7 30 1016 2.5 4.02335 0.13 3.302
7:03 am 07:03 Cloudy with Rain 66 19 66 19 100 100 E 5 7 29.97 1015 1.5 2.41401 0.01 0.254
7:18 am 07:18 Cloudy with Rain 66 19 66 19 100 100 ENE 5 7 29.97 1015 2 3.21868 0.04 1.016
7:26 am 07:26 Cloudy with Heavy Rain 66 19 66 19 100 100 E 3 6 30 1016 1.5 2.41401 0.06 1.524
7:56 am 07:56 Cloudy with Rain 66 18.9 66 18.9 100 100 ESE 6 9 30 1016 1.75 2.816345 0.14 3.556
8:05 am 08:05 Cloudy with Rain 66 19 66 19 100 100 ENE 10 17 29.97 1015 2.5 4.02335 0.04 1.016
8:14 am 08:14 Cloudy with Rain 66 19 66 19 100 100 ENE 9 15 29.94 1014 4 6.43736 0.06 1.524
8:44 am 08:44 Cloudy with Light Rain 66 19 66 19 100 100 ESE 7 11 29.97 1015 8 12.87472 0.09 2.286
8:56 am 08:56 Cloudy with Rain 67 19.4 67 19.4 100 100 E 8 13 29.99 1016 7 11.26538 0.1 2.54
9:04 am 09:04 Cloudy with Rain 66 19 66 19 100 100 ENE 5 7 29.97 1015 4 6.43736 0.03 0.762
9:43 am 09:43 Cloudy with Rain 66 19 66 19 100 100 N 8 13 29.97 1015 8 12.87472 0.14 3.556
9:56 am 09:56 Cloudy with Heavy Rain 67 19.4 67 19.4 100 100 N 7 11 29.99 1016 6 9.65604 0.18 4.572
10:25 am 10:25 Cloudy with Heavy Rain 66 19 66 19 100 100 E 7 11 29.97 1015 1.5 2.41401 0.39 9.906
10:49 am 10:49 Cloudy with Heavy Rain 66 19 66 19 100 100 E 20 31 29.91 1013 2.5 4.02335 0.7 17.78
10:56 am 10:56 Cloudy with Rain 68 20 68 20 100 100 E 16 26 29.94 1014 3 4.82802 0.74 18.796
11:31 am 11:31 Mostly Cloudy with Light Rain 70 21 70 21 100 100 ESE 14 22 29.94 1014 10 16.0934 0.01 0.254
11:40 am 11:40 Mostly Cloudy 70 21 70 21 100 100 E 15 24 29.94 1014 10 16.0934 0.01 0.254
11:56 am 11:56 Cloudy 71 21.7 70 21.1 96 96 E 15 24 29.95 1014 10 16.0934 0.01 0.254
12:27 pm 12:27 Cloudy 72 22 70 21 94 94 E 15 24 29.94 1014 10 16.0934 0 0
12:56 pm 12:56 Cloudy 73 22.8 69 20.6 87 87 E 17 28 29.93 1014 10 16.0934 0 0
1:56 pm 13:56 Cloudy 72 22.2 69 20.6 91 91 ESE 12 19 29.93 1014 10 16.0934 0 0
2:56 pm 14:56 Cloudy with Light Rain 72 22.2 70 21.1 94 94 E 8 13 29.92 1013 10 16.0934 0 0.0254
3:16 pm 15:16 Cloudy with Light Rain 73 23 72 22 94 94 ESE 7 11 29.88 1012 10 16.0934 0 0.0254
3:56 pm 15:56 Mostly Cloudy with Light Rain 74 23.3 72 22.2 94 94 SE 9 15 29.9 1013 10 16.0934 0 0.0254
4:45 pm 16:45 Mostly Cloudy 75 24 72 22 89 89 SSE 8 13 29.88 1012 8 12.87472 0 0.0254
4:56 pm 16:56 Mostly Cloudy 75 23.9 70 21.1 84 84 SE 7 11 29.88 1012 10 16.0934 0 0.0254
5:49 pm 17:49 Mostly Cloudy 75 24 72 22 89 89 SE 6 9 29.83 1010 10 16.0934 0 0
5:56 pm 17:56 Mostly Cloudy 76 24.4 71 21.7 85 85 SSE 6 9 29.88 1012 10 16.0934 0 0
6:56 pm 18:56 Sunny 76 24.4 70 21.1 82 82 S 7 11 29.87 1011 10 16.0934 0 0
7:56 pm 19:56 Mostly Sunny 74 23.3 70 21.1 88 88 S 5 7 29.87 1012 10 16.0934 0 0
8:56 pm 20:56 Mostly Cloudy 73 22.8 70 21.1 90 90 WSW 8 13 29.88 1012 10 16.0934 0 0
9:56 pm 21:56 Mostly Cloudy 70 21.1 70 21.1 100 100 WSW 8 13 29.9 1013 10 16.0934 0 0
10:56 pm 22:56 Clear 69 20.6 69 20.6 100 100 SW 8 13 29.91 1013 10 16.0934 0 0
11:56 pm 23:56 Clear 69 20.6 68 20 96 96 SSW 8 13 29.91 1013 10 16.0934 0 0

Powered by AerisWeather